When you browse on this site, cookies collect data to enhance your experience and personalize the content and advertising you see.
Visit our Privacy Policy to learn more. By continuing to use the site, you agree to this use of cookies and data.

Previsão horária em Igls

Hoje, 29 Setembro, Terça-feira

Tempo Temperatura Precipitação Vento Pressão Humidade
00:00 +6°C° 0 mm 1 m/s 683 mmHg 96%
01:00 +5°C° 0 mm 1 m/s 682 mmHg 96%
02:00 +5°C° 0 mm 1 m/s 682 mmHg 94%
03:00 +5°C° 0 mm 1 m/s 682 mmHg 92%
04:00 +5°C° 0 mm 1 m/s 682 mmHg 90%
05:00 +5°C° 0.3 mm 1 m/s 683 mmHg 91%
06:00 +6°C° 0.3 mm 1 m/s 683 mmHg 92%
07:00 +7°C° 0.3 mm 1 m/s 684 mmHg 93%
08:00 +7°C° 0.5 mm 1 m/s 684 mmHg 94%
09:00 +8°C° 0.5 mm 1 m/s 684 mmHg 95%
10:00 +9°C° 0.5 mm 1 m/s 684 mmHg 95%
11:00 +10°C° 0.1 mm 1 m/s 684 mmHg 94%
12:00 +11°C° 0.1 mm 1 m/s 684 mmHg 94%
13:00 +11°C° 0.1 mm 1 m/s 685 mmHg 93%
14:00 +11°C° 0.1 mm 1 m/s 685 mmHg 93%
15:00 +11°C° 0.1 mm 1 m/s 684 mmHg 93%
16:00 +11°C° 0.1 mm 1 m/s 684 mmHg 93%
17:00 +11°C° 0 mm 1 m/s 685 mmHg 94%
18:00 +10°C° 0 mm 1 m/s 685 mmHg 95%
19:00 +10°C° 0 mm 1 m/s 685 mmHg 96%
20:00 +9°C° 0 mm 1 m/s 685 mmHg 95%
21:00 +9°C° 0 mm 1 m/s 685 mmHg 95%
22:00 +9°C° 0 mm 1 m/s 685 mmHg 94%
23:00 +9°C° 0 mm 1 m/s 685 mmHg 94%

Amanhã, 30 Setembro, Quarta-feira

Tempo Temperatura Precipitação Vento Pressão Humidade
00:00 +8°C° 0 mm 1 m/s 685 mmHg 94%
01:00 +8°C° 0 mm 1 m/s 685 mmHg 94%
02:00 +8°C° 0 mm 1 m/s 684 mmHg 94%
03:00 +8°C° 0 mm 1 m/s 684 mmHg 93%
04:00 +7°C° 0 mm 1 m/s 684 mmHg 93%
05:00 +8°C° 0 mm 1 m/s 684 mmHg 92%
06:00 +8°C° 0 mm 1 m/s 684 mmHg 91%
07:00 +9°C° 0 mm 1 m/s 684 mmHg 90%
08:00 +11°C° 0 mm 1 m/s 684 mmHg 86%
09:00 +12°C° 0 mm 0 m/s 684 mmHg 83%
10:00 +13°C° 0 mm 0 m/s 684 mmHg 79%
11:00 +14°C° 0 mm 0 m/s 684 mmHg 75%
12:00 +15°C° 0 mm 0 m/s 684 mmHg 71%
13:00 +18°C° 0 mm 1 m/s 683 mmHg 67%
14:00 +16°C° 0 mm 1 m/s 683 mmHg 70%
15:00 +16°C° 0 mm 1 m/s 682 mmHg 73%
16:00 +15°C° 0 mm 1 m/s 682 mmHg 76%
17:00 +13°C° 0 mm 1 m/s 682 mmHg 81%
18:00 +12°C° 0 mm 1 m/s 681 mmHg 86%
19:00 +10°C° 0 mm 1 m/s 681 mmHg 91%
20:00 +10°C° 0 mm 1 m/s 681 mmHg 89%
21:00 +9°C° 0 mm 1 m/s 681 mmHg 87%
22:00 +9°C° 0 mm 1 m/s 681 mmHg 84%
23:00 +9°C° 0 mm 1 m/s 681 mmHg 82%

Depois de amanhã, 1 Outubro, Quinta-feira

Tempo Temperatura Precipitação Vento Pressão Humidade
00:00 +9°C° 0 mm 1 m/s 680 mmHg 80%
01:00 +9°C° 0 mm 1 m/s 680 mmHg 78%
02:00 +9°C° 0 mm 1 m/s 680 mmHg 76%
03:00 +9°C° 0 mm 1 m/s 679 mmHg 75%
04:00 +9°C° 0 mm 1 m/s 679 mmHg 73%
05:00 +9°C° 0 mm 1 m/s 679 mmHg 73%
06:00 +9°C° 0 mm 1 m/s 679 mmHg 72%
07:00 +9°C° 0 mm 1 m/s 679 mmHg 71%
08:00 +12°C° 0 mm 1 m/s 679 mmHg 68%
09:00 +14°C° 0 mm 1 m/s 679 mmHg 66%
10:00 +16°C° 0 mm 0 m/s 679 mmHg 63%
11:00 +16°C° 0 mm 0 m/s 679 mmHg 61%
12:00 +17°C° 0 mm 0 m/s 679 mmHg 59%
13:00 +17°C° 0 mm 0 m/s 678 mmHg 58%
14:00 +18°C° 0 mm 1 m/s 678 mmHg 63%
15:00 +18°C° 0 mm 1 m/s 678 mmHg 68%
16:00 +16°C° 0 mm 1 m/s 677 mmHg 73%
17:00 +14°C° 0.1 mm 1 m/s 677 mmHg 78%
18:00 +12°C° 0.1 mm 0 m/s 677 mmHg 82%
19:00 +11°C° 0.1 mm 0 m/s 677 mmHg 86%
20:00 +10°C° 0 mm 0 m/s 677 mmHg 87%
21:00 +11°C° 0 mm 1 m/s 677 mmHg 88%
22:00 +10°C° 0 mm 1 m/s 677 mmHg 88%
23:00 +10°C° 0 mm 1 m/s 677 mmHg 89%

2 Outubro, Sexta-feira

Tempo Temperatura Precipitação Vento Pressão Humidade
00:00 +10°C° 0 mm 1 m/s 676 mmHg 90%
01:00 +10°C° 0 mm 1 m/s 676 mmHg 91%
02:00 +10°C° 0 mm 1 m/s 676 mmHg 92%
03:00 +9°C° 0 mm 2 m/s 675 mmHg 93%
04:00 +9°C° 0 mm 2 m/s 675 mmHg 94%
05:00 +9°C° 0.1 mm 2 m/s 675 mmHg 94%
06:00 +9°C° 0.1 mm 2 m/s 674 mmHg 93%
07:00 +9°C° 0.1 mm 2 m/s 674 mmHg 93%
08:00 +10°C° 0 mm 2 m/s 674 mmHg 89%
09:00 +12°C° 0 mm 3 m/s 673 mmHg 86%
10:00 +13°C° 0 mm 3 m/s 673 mmHg 82%
11:00 +13°C° 0.1 mm 3 m/s 673 mmHg 81%
12:00 +13°C° 0.1 mm 3 m/s 672 mmHg 80%
13:00 +14°C° 0.1 mm 3 m/s 672 mmHg 78%
14:00 +14°C° 0.3 mm 3 m/s 672 mmHg 80%
15:00 +13°C° 0.3 mm 3 m/s 671 mmHg 82%
16:00 +13°C° 0.3 mm 3 m/s 671 mmHg 84%
17:00 +12°C° 0.4 mm 4 m/s 671 mmHg 87%
18:00 +12°C° 0.4 mm 4 m/s 671 mmHg 89%
19:00 +11°C° 0.4 mm 4 m/s 671 mmHg 92%
20:00 +11°C° 0.2 mm 4 m/s 671 mmHg 92%
21:00 +11°C° 0.2 mm 4 m/s 671 mmHg 93%
22:00 +11°C° 0.2 mm 4 m/s 671 mmHg 93%
23:00 +11°C° 0 mm 4 m/s 671 mmHg 93%

3 Outubro, Sábado

Tempo Temperatura Precipitação Vento Pressão Humidade
00:00 +11°C° 0 mm 4 m/s 671 mmHg 93%
01:00 +11°C° 0 mm 4 m/s 671 mmHg 93%
02:00 +11°C° 0 mm 4 m/s 670 mmHg 93%
03:00 +11°C° 0 mm 4 m/s 670 mmHg 93%
04:00 +11°C° 0 mm 4 m/s 670 mmHg 92%
05:00 +11°C° 0.1 mm 4 m/s 670 mmHg 92%
06:00 +11°C° 0.1 mm 4 m/s 670 mmHg 92%
07:00 +11°C° 0.1 mm 4 m/s 671 mmHg 92%
08:00 +13°C° 0.1 mm 4 m/s 671 mmHg 88%
09:00 +14°C° 0.1 mm 4 m/s 672 mmHg 83%
10:00 +17°C° 0.1 mm 4 m/s 672 mmHg 78%
11:00 +18°C° 0.5 mm 4 m/s 672 mmHg 74%
12:00 +18°C° 0.5 mm 4 m/s 672 mmHg 70%
13:00 +19°C° 0.5 mm 5 m/s 672 mmHg 67%
14:00 +18°C° 0.3 mm 4 m/s 672 mmHg 71%
15:00 +17°C° 0.3 mm 4 m/s 672 mmHg 75%
16:00 +17°C° 0.3 mm 3 m/s 672 mmHg 79%
17:00 +14°C° 2.4 mm 3 m/s 672 mmHg 85%
18:00 +14°C° 2.4 mm 2 m/s 672 mmHg 91%
19:00 +13°C° 2.4 mm 1 m/s 672 mmHg 97%
20:00 +12°C° 1.4 mm 2 m/s 673 mmHg 97%
21:00 +12°C° 1.4 mm 2 m/s 673 mmHg 97%
22:00 +10°C° 1.4 mm 2 m/s 673 mmHg 97%
23:00 +10°C° 0.2 mm 2 m/s 673 mmHg 96%

4 Outubro, Domingo

Tempo Temperatura Precipitação Vento Pressão Humidade
00:00 +9°C° 0.2 mm 3 m/s 673 mmHg 95%
01:00 +8°C° 0.2 mm 3 m/s 673 mmHg 94%
02:00 +7°C° 0 mm 4 m/s 672 mmHg 93%
03:00 +6°C° 0 mm 4 m/s 672 mmHg 92%
04:00 +5°C° 0 mm 4 m/s 671 mmHg 91%
05:00 +5°C° 0 mm 4 m/s 672 mmHg 90%
06:00 +5°C° 0 mm 4 m/s 672 mmHg 89%
07:00 +5°C° 0 mm 4 m/s 672 mmHg 89%
08:00 +7°C° 0.1 mm 4 m/s 672 mmHg 83%
09:00 +10°C° 0.1 mm 4 m/s 673 mmHg 77%
10:00 +11°C° 0.1 mm 4 m/s 673 mmHg 72%
11:00 +11°C° 0.5 mm 4 m/s 673 mmHg 74%
12:00 +11°C° 0.5 mm 3 m/s 674 mmHg 76%
13:00 +11°C° 0.5 mm 3 m/s 674 mmHg 78%
14:00 +11°C° 0.2 mm 3 m/s 675 mmHg 79%
15:00 +11°C° 0.2 mm 3 m/s 675 mmHg 79%
16:00 +11°C° 0.2 mm 3 m/s 675 mmHg 80%
17:00 +10°C° 0.1 mm 3 m/s 675 mmHg 85%
18:00 +9°C° 0.1 mm 3 m/s 675 mmHg 89%
19:00 +8°C° 0.1 mm 3 m/s 675 mmHg 94%
20:00 +8°C° 0.1 mm 2 m/s 675 mmHg 94%
21:00 +8°C° 0.1 mm 2 m/s 675 mmHg 95%
22:00 +8°C° 0.1 mm 2 m/s 675 mmHg 95%
23:00 +8°C° 0.1 mm 2 m/s 675 mmHg 95%
Mostrar mais